DW8397 Weather Reports


time (UTC)temp
C
wind
direction
speed
KPH
gust
KPH
rain 1hr
cm
rain 24hr
cm
rain mn
cm
humidity
%
barometer
mb
20260504201511 18 213 14.5 27.4 0.00 0.00 0.00 42 1005.8
20260504200009 18 210 8.0 29.0 0.00 0.00 0.00 44 1005.9
20260504194512 17 220 9.7 25.7 0.00 0.00 0.00 44 1006.0
20260504193005 17 201 8.0 33.8 0.00 0.00 0.00 46 1006.1
20260504191503 16 325 6.4 29.0 0.00 0.00 0.00 46 1006.2
20260504190002 17 213 14.5 35.4 0.00 0.00 0.00 45 1006.3
20260504184609 16 231 6.4 24.1 0.00 0.00 0.00 47 1006.3
20260504183058 16 198 11.3 32.2 0.00 0.00 0.00 47 1006.3
20260504181559 15 192 11.3 27.4 0.00 0.00 0.00 48 1006.3
20260504180055 15 302 12.9 33.8 0.00 0.00 0.00 47 1006.4
20260504174553 15 194 14.5 30.6 0.00 0.00 0.00 48 1006.7
20260504173152 15 207 17.7 37.0 0.00 0.00 0.00 48 1006.8
20260504171552 15 200 14.5 29.0 0.00 0.00 0.00 48 1006.8
20260504081539 6 186 3.2 11.3 0.00 0.00 0.00 80 1008.2
20260504050016 6 202 8.0 16.1 0.00 0.00 0.00 70 1009.0
20260504044514 5 213 0.0 3.2 0.00 0.00 0.00 64 1009.1
20260504043011 5 179 1.6 11.3 0.00 0.00 0.00 64 1009.1
20260504041607 5 211 0.0 4.8 0.00 0.00 0.00 60 1009.1
20260504040007 4 197 0.0 8.0 0.00 0.00 0.00 59 1009.1
20260504034507 4 229 0.0 6.4 0.00 0.00 0.00 62 1009.1
20260504033003 4 298 0.0 0.0 0.00 0.00 0.00 66 1009.1
20260504031503 5 298 0.0 0.0 0.00 0.00 0.00 59 1009.1
20260504030003 5 298 0.0 0.0 0.00 0.00 0.00 54 1009.1
20260504024507 5 298 0.0 4.8 0.00 0.00 0.00 53 1009.2
20260504023002 5 316 0.0 9.7 0.00 0.00 0.00 51 1009.3
20260504021502 4 316 0.0 4.8 0.00 0.00 0.00 54 1009.3
20260504020100 4 309 0.0 11.3 0.00 0.00 0.00 54 1009.4
20260504014600 4 316 0.0 0.0 0.00 0.00 0.00 56 1009.2
20260504013100 4 349 0.0 0.0 0.00 0.00 0.00 57 1009.1
20260504011558 4 355 0.0 0.0 0.00 0.00 0.00 56 1009.0
20260504010059 5 355 0.0 0.0 0.00 0.00 0.00 56 1008.7
20260504004558 5 355 0.0 0.0 0.00 0.00 0.00 55 1008.4
20260504003057 6 355 0.0 0.0 0.00 0.00 0.00 52 1008.3
20260504001557 6 336 0.0 0.0 0.00 0.00 0.00 52 1008.1
20260504000136 7 332 0.0 0.0 0.00 0.00 0.00 48 1008.0
20260503234557 7 301 0.0 0.0 0.00 0.00 0.00 47 1007.8
20260503233055 7 300 0.0 9.7 0.00 0.00 0.00 46 1007.7
20260503231555 7 360 0.0 9.7 0.00 0.00 0.00 46 1007.6
20260503230057 8 262 9.7 17.7 0.00 0.00 0.00 44 1007.5
20260503224554 8 328 4.8 12.9 0.00 0.00 0.00 46 1007.6
20260503223054 8 316 6.4 20.9 0.00 0.00 0.00 44 1007.5
20260503221554 8 257 9.7 27.4 0.00 0.00 0.00 44 1007.5
20260503220053 8 319 11.3 29.0 0.00 0.00 0.00 43 1007.4
20260503214551 8 304 9.7 25.7 0.00 0.00 0.00 49 1007.3
20260503213049 7 278 3.2 14.5 0.00 0.00 0.00 49 1007.3
20260503211548 7 331 12.9 20.9 0.00 0.00 0.00 48 1007.4
20260503210048 7 271 12.9 24.1 0.00 0.00 0.00 50 1007.4
20260503204552 7 323 6.4 27.4 0.00 0.00 0.00 50 1007.3
20260503203046 7 296 8.0 22.5 0.00 0.00 0.00 50 1007.4